Ft. Stewart, GA

12:50 AM EDT on September 22, 2017 (GMT -0400)
Wright Army Air Field

Weather History for KLHW - January, 2015

Change the Weather History Date:

Thursday, January 15, 2015

  Actual Average Record
Temperature  
Mean Temperature 42 °F -  
Max Temperature 44 °F 60 °F 79 °F (1974)
Min Temperature 39 °F 39 °F 21 °F (2011)
Degree Days  
Heating Degree Days 24    
Moisture  
Dew Point 39 °F    
Average Humidity 89    
Maximum Humidity 93    
Minimum Humidity 81    
Precipitation  
Precipitation 0.06 in - - ()
Sea Level Pressure  
Sea Level Pressure 30.17 in    
Wind  
Wind Speed 4 mph (NNW)    
Max Wind Speed 7 mph    
Max Gust Speed -    
Visibility 10 miles    
Events Rain    
Averages and records for this station are not official NWS values.
T = Trace of Precipitation, MM = Missing Value Source: NWS Daily Summary

Daily Weather History Graph

Daily Weather History Graph

Search for Another Location

Airport or City:

Trip Planner

Search our weather history database for the weather conditions in past years. The results will help you decide how hot, cold, wet, or windy it might be!

Date:

Astronomy

Jan. 15, 2015 Rise Set
Actual Time 7:26 AM EST 5:44 PM EST
Civil Twilight 7:00 AM EST 6:11 PM EST
Nautical Twilight 6:30 AM EST 6:41 PM EST
Astronomical Twilight 6:01 AM EST 7:10 PM EST
Moon 2:25 AM EST (1/15) 1:30 PM EST (1/15)
Length of Visible Light 11h 10m
Length of Day
10h 17m
Waning Crescent, 28% of the Moon is Illuminated
Jan 15
Waning Crescent
Jan 20
New
Jan 26
First Quarter
Feb 3
Full
Feb 11
Last Quarter

Hourly Weather History & Observations

Time (EST) Temp. Windchill Dew Point Humidity Pressure Visibility Wind Dir Wind Speed Gust Speed Precip Events Conditions
12:58 AM 41.7 °F 39.8 °F 37.6 °F 85% 30.22 in 10.0 mi North 3.5 mph - N/A   Overcast
1:48 AM 41.0 °F 38.0 °F 37.4 °F 87% 30.21 in 10.0 mi North 4.6 mph - N/A   Overcast
1:58 AM 41.7 °F 38.0 °F 37.8 °F 86% 30.22 in 10.0 mi North 5.8 mph - N/A   Overcast
2:23 AM 41.0 °F 37.1 °F 37.4 °F 87% 30.21 in 10.0 mi NNW 5.8 mph - N/A   Overcast
2:33 AM 41.0 °F 38.0 °F 37.4 °F 87% 30.21 in 10.0 mi NW 4.6 mph - N/A   Overcast
2:53 AM 41.0 °F 37.1 °F 37.4 °F 87% 30.21 in 10.0 mi North 5.8 mph - N/A   Overcast
2:58 AM 41.4 °F 38.4 °F 37.0 °F 85% 30.22 in 10.0 mi North 4.6 mph - N/A   Overcast
3:33 AM 41.0 °F 39.0 °F 37.4 °F 87% 30.20 in 10.0 mi North 3.5 mph - N/A   Overcast
3:58 AM 41.4 °F 37.6 °F 37.6 °F 86% 30.20 in 10.0 mi NNW 5.8 mph - N/A   Overcast
4:58 AM 40.8 °F 36.2 °F 37.2 °F 87% 30.19 in 10.0 mi North 6.9 mph - N/A   Overcast
5:58 AM 40.3 °F 36.3 °F 36.9 °F 88% 30.20 in 10.0 mi North 5.8 mph - N/A   Overcast
6:58 AM 40.5 °F 38.4 °F 36.9 °F 87% 30.21 in 10.0 mi NNE 3.5 mph - N/A   Overcast
7:58 AM 39.7 °F 36.5 °F 36.5 °F 88% 30.19 in 10.0 mi NE 4.6 mph - N/A   Overcast
8:58 AM 39.9 °F 36.7 °F 36.5 °F 88% 30.21 in 10.0 mi ENE 4.6 mph - N/A   Overcast
9:58 AM 40.5 °F - 36.7 °F 86% 30.22 in 10.0 mi Calm Calm - N/A   Overcast
10:58 AM 40.8 °F - 37.0 °F 86% 30.24 in 10.0 mi Calm Calm - N/A   Overcast
11:48 AM 42.8 °F 40.1 °F 37.4 °F 81% 30.22 in 10.0 mi West 4.6 mph - N/A   Overcast
11:58 AM 42.1 °F 40.2 °F 37.2 °F 83% 30.23 in 10.0 mi Variable 3.5 mph - N/A   Overcast
12:03 PM 42.8 °F - 37.4 °F 81% 30.21 in 10.0 mi Calm Calm - N/A   Overcast
12:58 PM 42.8 °F - 37.8 °F 82% 30.19 in 10.0 mi WNW 2.3 mph - N/A   Overcast
1:08 PM 42.8 °F - 37.4 °F 81% 30.18 in 10.0 mi Variable 2.3 mph - N/A   Overcast
1:58 PM 43.2 °F 39.7 °F 38.1 °F 82% 30.18 in 10.0 mi West 5.8 mph - N/A   Overcast
2:58 PM 43.9 °F 39.9 °F 38.7 °F 82% 30.19 in 10.0 mi West 6.9 mph - N/A   Overcast
3:24 PM 44.6 °F 41.4 °F 39.2 °F 81% 30.18 in 10.0 mi WSW 5.8 mph - N/A Rain Light Rain
3:58 PM 43.5 °F 41.9 °F 39.6 °F 86% 30.17 in 10.0 mi WNW 3.5 mph - N/A Rain Light Rain
4:33 PM 42.8 °F 41.1 °F 41.0 °F 93% 30.15 in 10.0 mi NNE 3.5 mph - N/A Rain Light Rain
4:58 PM 43.2 °F 41.5 °F 40.6 °F 91% 30.16 in 10.0 mi North 3.5 mph - 0.02 in Rain Light Rain
5:38 PM 42.8 °F - 39.2 °F 87% 30.15 in 10.0 mi Calm Calm - N/A Rain Light Rain
5:43 PM 42.8 °F - 41.0 °F 93% 30.16 in 10.0 mi Calm Calm - N/A Rain Light Rain
5:48 PM 42.8 °F - 41.0 °F 93% 30.16 in 10.0 mi Calm Calm - N/A Rain Light Rain
5:53 PM 42.8 °F - 41.0 °F 93% 30.16 in 10.0 mi Calm Calm - N/A Rain Light Rain
5:58 PM 43.0 °F - 40.6 °F 91% 30.16 in 10.0 mi Calm Calm - N/A Rain Light Rain
6:03 PM 42.8 °F - 41.0 °F 93% 30.16 in 10.0 mi Calm Calm - N/A Rain Light Rain
6:28 PM 42.8 °F - 41.0 °F 93% 30.16 in 10.0 mi Calm Calm - N/A Rain Light Rain
6:48 PM 42.8 °F - 41.0 °F 93% 30.16 in 9.0 mi Calm Calm - N/A Rain Light Rain
6:58 PM 42.8 °F - 41.0 °F 93% 30.16 in 8.0 mi Calm Calm - 0.01 in Rain Light Rain
7:58 PM 42.8 °F - 41.0 °F 93% 30.15 in 10.0 mi Calm Calm - 0.02 in   Light Drizzle
8:01 PM 42.8 °F 41.1 °F 41.0 °F 93% 30.14 in 10.0 mi NW 3.5 mph - N/A   Mostly Cloudy
8:06 PM 42.8 °F 41.1 °F 41.0 °F 93% 30.14 in 9.0 mi NW 3.5 mph - N/A   Light Drizzle
8:29 PM 42.8 °F - 41.0 °F 93% 30.14 in 10.0 mi Calm Calm - N/A   Mostly Cloudy
8:31 PM 42.8 °F - 41.0 °F 93% 30.13 in 10.0 mi Calm Calm - N/A   Light Drizzle
8:54 PM 42.8 °F 40.1 °F 41.0 °F 93% 30.13 in 10.0 mi NW 4.6 mph - N/A   Clear
8:56 PM 42.8 °F 41.1 °F 41.0 °F 93% 30.13 in 10.0 mi NW 3.5 mph - N/A Rain Light Rain
8:58 PM 42.8 °F 41.1 °F 40.8 °F 93% 30.14 in 10.0 mi NW 3.5 mph - 0.00 in Rain Light Rain
9:04 PM 42.8 °F 40.1 °F 41.0 °F 93% 30.14 in 10.0 mi NW 4.6 mph - N/A   Mostly Cloudy
9:12 PM 42.8 °F - 41.0 °F 93% 30.13 in 10.0 mi NW 1.2 mph - N/A   Light Drizzle
9:23 PM 42.8 °F - 41.0 °F 93% 30.14 in 10.0 mi NW 2.3 mph - N/A   Overcast
9:37 PM 42.8 °F 40.1 °F 41.0 °F 93% 30.14 in 10.0 mi NW 4.6 mph - N/A Rain Light Rain
9:45 PM 42.8 °F 40.1 °F 41.0 °F 93% 30.14 in 10.0 mi NW 4.6 mph - N/A   Overcast
10:53 PM 42.8 °F 40.1 °F 41.0 °F 93% 30.15 in 10.0 mi NW 4.6 mph - N/A   Overcast
10:58 PM 43.2 °F 40.5 °F 41.4 °F 93% 30.17 in 10.0 mi WNW 4.6 mph - N/A   Overcast
11:32 PM 42.8 °F 39.3 °F 41.0 °F 93% 30.15 in 10.0 mi WNW 5.8 mph - N/A Rain Light Rain
11:42 PM 42.8 °F 38.6 °F 41.0 °F 93% 30.15 in 10.0 mi NW 6.9 mph - N/A Rain Light Rain
11:47 PM 42.8 °F 39.3 °F 41.0 °F 93% 30.15 in 7.0 mi NW 5.8 mph - N/A Rain Rain
11:58 PM 42.8 °F 40.1 °F 41.0 °F 93% 30.15 in 8.0 mi NW 4.6 mph - 0.01 in Rain Light Rain